Starlink 35511

operational
NORAD ID: 66344 Int'l Des: 2025-253 Owner: SPXS Country: US Constellation: starlink
NOTLE

Starlink 35511について

説明を読み込み中...

リアルタイム位置

3D地球を読み込み中...

次回通過

高度履歴

Altitude vs Time

uPlot chart will show altitude changes over time

軌道要素

1 66344U 25253AB 25355.53007343 .00062478 00000-0 14895-2 0 9991
2 66344 43.0041 294.5439 0001126 275.8130 84.2598 15.40725506 8288
Epoch: Dec 21, 2025 • Age: 9 hours

現在のステータス

高度 443.3 km
速度 7.65 km/s
衛星直下点 18.04°N, 110.73°W
打ち上げ日 Nov 6, 2025
運用期間 0.1 years
タイプ internet

技術仕様

分類 Payload
質量 575.00 kg
乾燥質量 530.00 kg
総質量 575.00 kg
長さ 0.30 m
直径 4.10 m
スパン 29.00 m
形状 Box + pan
製造者 SPXS
バスタイプ Starlink V2MO
フェーズステータス In Orbit
所有者/国 SPXS/US

大規模コンステレーション

Loading constellations...